Time,TemperatureF,DewpointF,PressureIn,WindDirection,WindDirectionDegrees,WindSpeedMPH,WindSpeedGustMPH,Humidity,HourlyPrecipIn,Conditions,Clouds,dailyrainin,SoftwareType,DateUTC
2013-04-08 00:03:00,52.0,47.0,30.01,SW,218,1.0,3.0,83,0.00,,,0.05,,2013-04-08 04:03:00,
2013-04-08 00:12:00,52.0,47.0,30.01,SW,218,1.0,3.0,83,0.00,,,0.05,,2013-04-08 04:12:00,
2013-04-08 00:23:00,50.0,46.0,30.01,North,0,0.0,1.0,86,0.00,,,0.05,,2013-04-08 04:23:00,
2013-04-08 00:34:00,50.0,46.0,30.01,North,0,0.0,1.0,86,0.00,,,0.05,,2013-04-08 04:34:00,
2013-04-08 00:44:00,50.0,46.0,30.01,North,0,0.0,1.0,86,0.00,,,0.05,,2013-04-08 04:44:00,
2013-04-08 00:53:00,49.0,46.0,30.01,North,0,0.0,0.0,89,0.00,,,0.05,,2013-04-08 04:53:00,
2013-04-08 01:02:00,49.0,46.0,30.01,North,0,0.0,0.0,89,0.00,,,0.05,,2013-04-08 05:02:00,
2013-04-08 01:12:00,49.0,46.0,30.01,North,0,0.0,0.0,89,0.00,,,0.05,,2013-04-08 05:12:00,
2013-04-08 01:22:00,49.0,46.0,30.01,North,0,0.0,0.0,89,0.00,,,0.05,,2013-04-08 05:22:00,
2013-04-08 01:32:00,48.0,45.0,30.02,North,0,0.0,0.0,89,0.00,,,0.05,,2013-04-08 05:32:00,
2013-04-08 01:42:00,48.0,45.0,30.02,North,0,0.0,0.0,89,0.00,,,0.05,,2013-04-08 05:42:00,
2013-04-08 01:52:00,48.0,45.0,30.02,North,0,0.0,0.0,89,0.00,,,0.05,,2013-04-08 05:52:00,
2013-04-08 02:02:00,47.0,44.0,30.02,North,0,0.0,2.0,90,0.00,,,0.05,,2013-04-08 06:02:00,
2013-04-08 02:12:00,47.0,44.0,30.02,North,0,0.0,2.0,90,0.00,,,0.05,,2013-04-08 06:12:00,
2013-04-08 02:22:00,47.0,44.0,30.02,North,0,0.0,2.0,90,0.00,,,0.05,,2013-04-08 06:22:00,
2013-04-08 02:32:00,46.0,44.0,30.02,North,0,0.0,0.0,92,0.00,,,0.05,,2013-04-08 06:32:00,
2013-04-08 02:43:00,46.0,44.0,30.02,North,0,0.0,0.0,92,0.00,,,0.05,,2013-04-08 06:43:00,
2013-04-08 02:52:00,46.0,44.0,30.02,North,0,0.0,0.0,92,0.00,,,0.05,,2013-04-08 06:52:00,
2013-04-08 03:02:00,47.0,45.0,30.02,North,0,0.0,1.0,93,0.00,,,0.05,,2013-04-08 07:02:00,
2013-04-08 03:12:00,47.0,45.0,30.02,North,0,0.0,1.0,93,0.00,,,0.05,,2013-04-08 07:12:00,
2013-04-08 03:22:00,47.0,45.0,30.02,North,0,0.0,1.0,93,0.00,,,0.05,,2013-04-08 07:22:00,
2013-04-08 03:33:00,47.0,45.0,30.02,North,0,0.0,1.0,93,0.00,,,0.05,,2013-04-08 07:33:00,
2013-04-08 03:42:00,47.0,45.0,30.02,North,0,0.0,1.0,93,0.00,,,0.05,,2013-04-08 07:42:00,
2013-04-08 03:53:00,47.0,45.0,30.02,West,267,1.0,2.0,91,0.00,,,0.05,,2013-04-08 07:53:00,
2013-04-08 04:02:00,47.0,45.0,30.02,North,0,0.0,2.0,92,0.00,,,0.05,,2013-04-08 08:02:00,
2013-04-08 04:12:00,47.0,45.0,30.02,North,0,0.0,2.0,92,0.00,,,0.05,,2013-04-08 08:12:00,
2013-04-08 04:22:00,47.0,45.0,30.02,North,0,0.0,2.0,92,0.00,,,0.05,,2013-04-08 08:22:00,
2013-04-08 04:33:00,47.0,45.0,30.02,North,0,0.0,0.0,92,0.00,,,0.05,,2013-04-08 08:33:00,
2013-04-08 04:43:00,48.0,45.0,30.05,North,0,0.0,1.0,91,0.00,,,0.05,,2013-04-08 08:43:00,
2013-04-08 04:52:00,48.0,45.0,30.05,North,0,0.0,1.0,91,0.00,,,0.05,,2013-04-08 08:52:00,
2013-04-08 05:02:00,48.0,45.0,30.04,North,0,0.0,0.0,90,0.00,,,0.05,,2013-04-08 09:02:00,
2013-04-08 05:12:00,48.0,45.0,30.04,North,0,0.0,0.0,90,0.00,,,0.05,,2013-04-08 09:12:00,
2013-04-08 05:23:00,48.0,45.0,30.04,North,0,0.0,0.0,90,0.00,,,0.05,,2013-04-08 09:23:00,
2013-04-08 05:33:00,48.0,45.0,30.04,North,0,0.0,0.0,90,0.00,,,0.05,,2013-04-08 09:33:00,
2013-04-08 05:43:00,46.0,44.0,30.06,North,0,0.0,0.0,93,0.00,,,0.05,,2013-04-08 09:43:00,
2013-04-08 05:53:00,46.0,44.0,30.06,North,0,0.0,0.0,93,0.00,,,0.05,,2013-04-08 09:53:00,
2013-04-08 06:03:00,46.0,44.0,30.06,North,0,0.0,0.0,93,0.00,,,0.05,,2013-04-08 10:03:00,
2013-04-08 06:13:00,46.0,44.0,30.06,North,0,0.0,0.0,93,0.00,,,0.05,,2013-04-08 10:13:00,
2013-04-08 06:23:00,46.0,44.0,30.06,North,0,0.0,0.0,94,0.00,,,0.05,,2013-04-08 10:23:00,
2013-04-08 06:33:00,46.0,44.0,30.06,North,0,0.0,0.0,93,0.00,,,0.05,,2013-04-08 10:33:00,
2013-04-08 06:42:00,46.0,44.0,30.06,North,0,0.0,0.0,93,0.00,,,0.05,,2013-04-08 10:42:00,
2013-04-08 06:53:00,46.0,44.0,30.06,North,0,0.0,0.0,93,0.00,,,0.05,,2013-04-08 10:53:00,
2013-04-08 07:02:00,46.0,44.0,30.06,North,0,0.0,0.0,93,0.00,,,0.05,,2013-04-08 11:02:00,
2013-04-08 07:12:00,46.0,44.0,30.06,North,0,0.0,0.0,93,0.00,,,0.05,,2013-04-08 11:12:00,
2013-04-08 07:23:00,46.0,44.0,30.06,North,0,0.0,0.0,93,0.00,,,0.05,,2013-04-08 11:23:00,
2013-04-08 07:32:00,46.0,44.0,30.07,North,0,0.0,0.0,94,0.00,,,0.05,,2013-04-08 11:32:00,
2013-04-08 07:42:00,46.0,44.0,30.07,North,0,0.0,0.0,94,0.00,,,0.05,,2013-04-08 11:42:00,
2013-04-08 07:52:00,46.0,44.0,30.08,North,0,0.0,2.0,93,0.00,,,0.05,,2013-04-08 11:52:00,
2013-04-08 08:03:00,46.0,44.0,30.08,North,0,0.0,2.0,93,0.00,,,0.05,,2013-04-08 12:03:00,
2013-04-08 08:12:00,46.0,44.0,30.08,North,0,0.0,2.0,93,0.00,,,0.05,,2013-04-08 12:12:00,
2013-04-08 08:23:00,48.0,45.0,30.09,North,0,0.0,2.0,91,0.00,,,0.05,,2013-04-08 12:23:00,
2013-04-08 08:33:00,48.0,45.0,30.09,North,0,0.0,2.0,91,0.00,,,0.05,,2013-04-08 12:33:00,
2013-04-08 08:42:00,48.0,45.0,30.09,North,0,0.0,2.0,91,0.00,,,0.05,,2013-04-08 12:42:00,
2013-04-08 08:52:00,52.0,47.0,30.09,SW,215,1.0,5.0,84,0.00,,,0.05,,2013-04-08 12:52:00,
2013-04-08 09:03:00,53.0,49.0,30.09,North,0,0.0,2.0,85,0.00,,,0.05,,2013-04-08 13:03:00,
2013-04-08 09:12:00,53.0,49.0,30.09,North,0,0.0,2.0,85,0.00,,,0.05,,2013-04-08 13:12:00,
2013-04-08 09:22:00,52.0,47.0,30.09,North,0,0.0,4.0,83,0.00,,,0.05,,2013-04-08 13:22:00,
2013-04-08 09:32:00,55.0,48.0,30.08,North,0,0.0,4.0,78,0.00,,,0.05,,2013-04-08 13:32:00,
2013-04-08 09:43:00,55.0,48.0,30.08,North,0,0.0,4.0,78,0.00,,,0.05,,2013-04-08 13:43:00,
2013-04-08 09:52:00,57.0,49.0,30.09,North,0,0.0,4.0,75,0.00,,,0.05,,2013-04-08 13:52:00,
2013-04-08 10:03:00,59.0,50.0,30.08,North,0,0.0,4.0,73,0.00,,,0.05,,2013-04-08 14:03:00,
2013-04-08 10:12:00,61.0,50.0,30.08,North,0,0.0,4.0,68,0.00,,,0.05,,2013-04-08 14:12:00,
2013-04-08 10:22:00,61.0,50.0,30.08,North,0,0.0,4.0,68,0.00,,,0.05,,2013-04-08 14:22:00,
2013-04-08 10:32:00,61.0,50.0,30.08,North,0,0.0,4.0,68,0.00,,,0.05,,2013-04-08 14:32:00,
2013-04-08 10:42:00,63.0,51.0,30.07,ESE,115,1.0,4.0,64,0.00,,,0.05,,2013-04-08 14:42:00,
2013-04-08 10:52:00,63.0,51.0,30.07,ESE,115,1.0,4.0,64,0.00,,,0.05,,2013-04-08 14:52:00,
2013-04-08 11:02:00,63.0,49.0,30.07,SW,226,2.0,9.0,61,0.00,,,0.05,,2013-04-08 15:02:00,
2013-04-08 11:12:00,64.0,47.0,30.07,SSW,198,3.0,8.0,54,0.00,,,0.05,,2013-04-08 15:12:00,
2013-04-08 11:22:00,64.0,47.0,30.07,SSW,198,3.0,8.0,54,0.00,,,0.05,,2013-04-08 15:22:00,
2013-04-08 11:34:00,64.0,47.0,30.07,SSW,198,3.0,8.0,54,0.00,,,0.05,,2013-04-08 15:34:00,
2013-04-08 11:43:00,64.0,47.0,30.07,SSW,198,3.0,8.0,54,0.00,,,0.05,,2013-04-08 15:43:00,
2013-04-08 11:53:00,65.0,45.0,30.06,SW,230,6.0,18.0,48,0.00,,,0.05,,2013-04-08 15:53:00,
2013-04-08 12:03:00,65.0,44.0,30.06,SW,216,7.0,18.0,47,0.00,,,0.05,,2013-04-08 16:03:00,
2013-04-08 12:13:00,65.0,44.0,30.06,SW,221,4.0,14.0,46,0.00,,,0.05,,2013-04-08 16:13:00,
2013-04-08 12:23:00,65.0,44.0,30.06,SW,221,4.0,14.0,46,0.00,,,0.05,,2013-04-08 16:23:00,
2013-04-08 12:32:00,65.0,44.0,30.06,SW,221,4.0,14.0,46,0.00,,,0.05,,2013-04-08 16:32:00,
2013-04-08 12:42:00,65.0,44.0,30.06,South,173,1.0,14.0,47,0.00,,,0.05,,2013-04-08 16:42:00,
2013-04-08 12:53:00,65.0,43.0,30.06,South,186,2.0,13.0,45,0.00,,,0.05,,2013-04-08 16:53:00,
2013-04-08 13:03:00,65.0,43.0,30.05,South,181,2.0,11.0,45,0.00,,,0.05,,2013-04-08 17:03:00,
2013-04-08 13:12:00,65.0,43.0,30.05,South,181,2.0,11.0,45,0.00,,,0.05,,2013-04-08 17:12:00,
2013-04-08 13:23:00,65.0,43.0,30.05,South,181,2.0,11.0,45,0.00,,,0.05,,2013-04-08 17:23:00,
2013-04-08 13:32:00,67.0,43.0,30.05,SW,223,8.0,17.0,42,0.00,,,0.05,,2013-04-08 17:32:00,
2013-04-08 13:43:00,67.0,43.0,30.05,SW,223,8.0,17.0,42,0.00,,,0.05,,2013-04-08 17:43:00,
2013-04-08 13:53:00,67.0,43.0,30.04,SSW,206,3.0,17.0,41,0.00,,,0.05,,2013-04-08 17:53:00,
2013-04-08 14:02:00,68.0,43.0,30.03,SSW,203,1.0,9.0,41,0.00,,,0.05,,2013-04-08 18:02:00,
2013-04-08 14:12:00,67.0,43.0,30.02,SW,222,6.0,13.0,42,0.00,,,0.05,,2013-04-08 18:12:00,
2013-04-08 14:23:00,67.0,43.0,30.02,SW,222,6.0,13.0,42,0.00,,,0.05,,2013-04-08 18:23:00,
2013-04-08 14:32:00,68.0,43.0,30.01,South,183,4.0,13.0,40,0.00,,,0.05,,2013-04-08 18:32:00,
2013-04-08 14:42:00,69.0,45.0,30.01,South,172,2.0,12.0,42,0.00,,,0.05,,2013-04-08 18:42:00,
2013-04-08 14:52:00,69.0,45.0,30.01,South,172,2.0,12.0,42,0.00,,,0.05,,2013-04-08 18:52:00,
2013-04-08 15:02:00,69.0,43.0,30.00,SSW,209,3.0,14.0,39,0.00,,,0.05,,2013-04-08 19:02:00,
2013-04-08 15:12:00,69.0,44.0,29.99,SSW,192,4.0,14.0,40,0.00,,,0.05,,2013-04-08 19:12:00,
2013-04-08 15:23:00,69.0,44.0,29.99,SSW,192,4.0,14.0,40,0.00,,,0.05,,2013-04-08 19:23:00,
2013-04-08 15:33:00,69.0,44.0,29.99,SSW,192,4.0,14.0,40,0.00,,,0.05,,2013-04-08 19:33:00,
2013-04-08 15:42:00,69.0,43.0,29.99,SSW,213,6.0,15.0,39,0.00,,,0.05,,2013-04-08 19:42:00,
2013-04-08 15:52:00,69.0,43.0,29.99,SSW,213,6.0,15.0,39,0.00,,,0.05,,2013-04-08 19:52:00,
2013-04-08 16:02:00,69.0,42.0,29.98,SSW,207,8.0,17.0,38,0.00,,,0.05,,2013-04-08 20:02:00,
2013-04-08 16:12:00,69.0,44.0,29.98,SW,215,7.0,16.0,40,0.00,,,0.05,,2013-04-08 20:12:00,
2013-04-08 16:23:00,69.0,44.0,29.98,SW,215,7.0,16.0,40,0.00,,,0.05,,2013-04-08 20:23:00,
2013-04-08 16:33:00,69.0,43.0,29.98,SSW,199,4.0,14.0,39,0.00,,,0.05,,2013-04-08 20:33:00,
2013-04-08 16:43:00,69.0,43.0,29.98,SSW,199,4.0,14.0,39,0.00,,,0.05,,2013-04-08 20:43:00,
2013-04-08 16:52:00,69.0,43.0,29.98,SSW,213,8.0,16.0,39,0.00,,,0.05,,2013-04-08 20:52:00,
2013-04-08 17:02:00,69.0,44.0,29.97,SSW,212,8.0,14.0,40,0.00,,,0.05,,2013-04-08 21:02:00,
2013-04-08 17:12:00,69.0,44.0,29.97,SW,221,7.0,15.0,40,0.00,,,0.05,,2013-04-08 21:12:00,
2013-04-08 17:22:00,69.0,44.0,29.97,SW,221,7.0,15.0,40,0.00,,,0.05,,2013-04-08 21:22:00,
2013-04-08 17:32:00,69.0,44.0,29.97,SW,225,6.0,12.0,40,0.00,,,0.05,,2013-04-08 21:32:00,
2013-04-08 17:43:00,69.0,44.0,29.97,SW,225,6.0,12.0,40,0.00,,,0.05,,2013-04-08 21:43:00,
2013-04-08 17:53:00,69.0,44.0,29.97,SW,225,5.0,13.0,41,0.00,,,0.05,,2013-04-08 21:53:00,
2013-04-08 18:03:00,68.0,43.0,29.98,SW,226,5.0,10.0,41,0.00,,,0.05,,2013-04-08 22:03:00,
2013-04-08 18:13:00,68.0,43.0,29.98,SW,226,5.0,10.0,41,0.00,,,0.05,,2013-04-08 22:13:00,
2013-04-08 18:23:00,68.0,43.0,29.98,SW,219,5.0,10.0,41,0.00,,,0.05,,2013-04-08 22:23:00,
2013-04-08 18:32:00,68.0,43.0,29.98,SW,219,5.0,10.0,41,0.00,,,0.05,,2013-04-08 22:32:00,
2013-04-08 18:44:00,68.0,-99.9,-100.00,SW,223,5.0,14.0,-999,0.00,,,-99.99,,2013-04-08 22:44:00,
2013-04-08 18:52:00,68.0,43.0,29.98,SW,226,5.0,10.0,41,0.00,,,0.05,,2013-04-08 22:52:00,
2013-04-08 19:02:00,67.0,43.0,29.97,SW,224,2.0,10.0,42,0.00,,,0.05,,2013-04-08 23:02:00,
2013-04-08 19:12:00,67.0,43.0,29.97,SW,224,2.0,10.0,42,0.00,,,0.05,,2013-04-08 23:12:00,
2013-04-08 19:22:00,67.0,43.0,29.97,SW,224,2.0,10.0,42,0.00,,,0.05,,2013-04-08 23:22:00,
2013-04-08 19:32:00,67.0,44.0,29.98,SW,224,3.0,10.0,43,0.00,,,0.05,,2013-04-08 23:32:00,
2013-04-08 19:43:00,66.0,43.0,29.98,SW,223,3.0,7.0,43,0.00,,,0.05,,2013-04-08 23:43:00,
2013-04-08 19:52:00,66.0,43.0,29.98,SW,223,3.0,7.0,43,0.00,,,0.05,,2013-04-08 23:52:00,
2013-04-08 20:02:00,66.0,43.0,29.98,North,0,0.0,4.0,44,0.00,,,0.04,,2013-04-09 00:02:00,
2013-04-08 20:12:00,66.0,43.0,29.98,North,0,0.0,4.0,44,0.00,,,0.04,,2013-04-09 00:12:00,
2013-04-08 20:22:00,66.0,43.0,29.98,North,0,0.0,4.0,44,0.00,,,0.04,,2013-04-09 00:22:00,
2013-04-08 20:32:00,65.0,43.0,29.98,North,0,0.0,4.0,45,0.00,,,0.01,,2013-04-09 00:32:00,
2013-04-08 20:42:00,64.0,43.0,29.99,North,0,0.0,4.0,47,0.00,,,0.01,,2013-04-09 00:42:00,
2013-04-08 20:52:00,64.0,43.0,29.99,North,0,0.0,4.0,47,0.00,,,0.01,,2013-04-09 00:52:00,
2013-04-08 21:02:00,64.0,43.0,29.99,SW,224,2.0,6.0,47,0.00,,,0.01,,2013-04-09 01:02:00,
2013-04-08 21:12:00,64.0,44.0,30.00,North,0,0.0,5.0,48,0.00,,,0.01,,2013-04-09 01:12:00,
2013-04-08 21:22:00,64.0,44.0,30.00,North,0,0.0,5.0,48,0.00,,,0.01,,2013-04-09 01:22:00,
2013-04-08 21:33:00,62.0,44.0,30.00,North,0,0.0,3.0,52,0.00,,,0.00,,2013-04-09 01:33:00,
2013-04-08 21:42:00,61.0,44.0,30.00,North,0,0.0,0.0,53,0.00,,,0.00,,2013-04-09 01:42:00,
2013-04-08 21:52:00,61.0,44.0,30.00,North,0,0.0,0.0,53,0.00,,,0.00,,2013-04-09 01:52:00,
2013-04-08 22:02:00,60.0,43.0,30.00,North,0,0.0,2.0,54,0.00,,,0.00,,2013-04-09 02:02:00,
2013-04-08 22:13:00,60.0,43.0,30.00,North,0,0.0,2.0,54,0.00,,,0.00,,2013-04-09 02:13:00,
2013-04-08 22:22:00,60.0,44.0,30.00,North,0,0.0,2.0,56,0.00,,,0.00,,2013-04-09 02:22:00,
2013-04-08 22:33:00,59.0,44.0,30.00,North,0,0.0,1.0,57,0.00,,,0.00,,2013-04-09 02:33:00,
2013-04-08 22:43:00,59.0,44.0,30.00,North,0,0.0,2.0,57,0.00,,,0.00,,2013-04-09 02:43:00,
2013-04-08 22:52:00,59.0,44.0,30.00,North,0,0.0,2.0,57,0.00,,,0.00,,2013-04-09 02:52:00,
2013-04-08 23:02:00,60.0,44.0,30.00,North,0,0.0,3.0,56,0.00,,,0.00,,2013-04-09 03:02:00,
2013-04-08 23:12:00,60.0,44.0,30.00,North,0,0.0,3.0,56,0.00,,,0.00,,2013-04-09 03:12:00,
2013-04-08 23:22:00,59.0,44.0,30.01,SSW,204,1.0,3.0,57,0.00,,,0.00,,2013-04-09 03:22:00,
2013-04-08 23:33:00,59.0,44.0,30.01,SSW,197,1.0,5.0,57,0.00,,,0.00,,2013-04-09 03:33:00,
2013-04-08 23:43:00,59.0,44.0,30.01,SSW,197,1.0,5.0,57,0.00,,,0.00,,2013-04-09 03:43:00,
2013-04-08 23:53:00,59.0,44.0,30.01,North,0,0.0,5.0,58,0.00,,,0.00,,2013-04-09 03:53:00,